| time (UTC) | temp F | wind direction | speed MPH | gust MPH | rain 1hr in | rain 24hr in | rain mn in | humidity % | barometer mb |
| 20260503034711 | 43 | 324 | 15.0 | 22.0 | 0.00 | 0.00 | 0.00 | 85 | 1007.4 |
| 20260503032711 | 44 | 327 | 16.0 | 21.0 | 0.00 | 0.00 | 0.00 | 85 | 1007.2 |
| 20260503030712 | 44 | 324 | 13.0 | 18.0 | 0.00 | 0.00 | 0.00 | 84 | 1006.9 |
| 20260503024712 | 46 | 327 | 16.0 | 23.0 | 0.00 | 0.00 | 0.00 | 78 | 1006.7 |
| 20260503022711 | 44 | 320 | 12.0 | 20.0 | 0.00 | 0.00 | 0.00 | 85 | 1006.9 |
| 20260503020711 | 45 | 337 | 14.0 | 18.0 | 0.00 | 0.00 | 0.00 | 83 | 1006.5 |
| 20260503014711 | 44 | 325 | 11.0 | 15.0 | 0.00 | 0.00 | 0.00 | 85 | 1006.5 |
| 20260503012711 | 45 | 315 | 10.0 | 13.0 | 0.00 | 0.00 | 0.00 | 84 | 1006.3 |
| 20260503010712 | 45 | 299 | 10.0 | 13.0 | 0.00 | 0.00 | 0.00 | 82 | 1006.3 |
| 20260503004712 | 45 | 288 | 11.0 | 14.0 | 0.00 | 0.00 | 0.00 | 83 | 1006.2 |
| 20260503002712 | 44 | 273 | 13.0 | 15.0 | 0.00 | 0.00 | 0.00 | 85 | 1006.3 |
| 20260503000711 | 44 | 271 | 15.0 | 17.0 | 0.00 | 0.00 | 0.00 | 85 | 1006.1 |
| 20260502234711 | 45 | 269 | 14.0 | 17.0 | 0.00 | 0.00 | 0.00 | 84 | 1006.0 |
| 20260502232711 | 45 | 265 | 15.0 | 18.0 | 0.00 | 0.00 | 0.00 | 84 | 1005.9 |
| 20260502230710 | 45 | 254 | 18.0 | 21.0 | 0.00 | 0.00 | 0.00 | 84 | 1006.2 |
| 20260502224711 | 45 | 244 | 18.0 | 20.0 | 0.00 | 0.00 | 0.00 | 83 | 1006.2 |
| 20260502222711 | 45 | 239 | 19.0 | 21.0 | 0.00 | 0.00 | 0.00 | 85 | 1006.3 |
| 20260502220712 | 44 | 233 | 20.0 | 23.0 | 0.00 | 0.00 | 0.00 | 86 | 1006.5 |
| 20260502214710 | 44 | 229 | 20.0 | 23.0 | 0.00 | 0.00 | 0.00 | 86 | 1006.6 |
| 20260502212710 | 44 | 233 | 18.0 | 21.0 | 0.00 | 0.00 | 0.00 | 86 | 1006.9 |
| 20260502210710 | 44 | 225 | 19.0 | 22.0 | 0.00 | 0.00 | 0.00 | 86 | 1006.9 |
| 20260502204711 | 44 | 224 | 19.0 | 21.0 | 0.00 | 0.00 | 0.00 | 85 | 1007.0 |
| 20260502202710 | 44 | 221 | 19.0 | 22.0 | 0.00 | 0.00 | 0.00 | 85 | 1007.1 |
| 20260502200711 | 45 | 221 | 18.0 | 22.0 | 0.00 | 0.00 | 0.00 | 84 | 1007.3 |
| 20260502194710 | 45 | 218 | 18.0 | 21.0 | 0.00 | 0.00 | 0.00 | 83 | 1007.4 |
| 20260502192710 | 45 | 217 | 19.0 | 22.0 | 0.00 | 0.00 | 0.00 | 82 | 1007.6 |
| 20260502190709 | 45 | 217 | 20.0 | 23.0 | 0.00 | 0.00 | 0.00 | 81 | 1007.7 |
| 20260502184709 | 46 | 214 | 21.0 | 25.0 | 0.00 | 0.00 | 0.00 | 79 | 1007.7 |
| 20260502182710 | 46 | 209 | 19.0 | 23.0 | 0.00 | 0.00 | 0.00 | 79 | 1007.9 |
| 20260502180709 | 46 | 212 | 20.0 | 23.0 | 0.00 | 0.00 | 0.00 | 77 | 1008.0 |
| 20260502162709 | 48 | 218 | 20.0 | 23.0 | 0.00 | 0.00 | 0.00 | 72 | 1009.1 |
| 20260502160709 | 49 | 219 | 21.0 | 24.0 | 0.00 | 0.00 | 0.00 | 71 | 1009.3 |
| 20260502150709 | 50 | 221 | 23.0 | 28.0 | 0.00 | 0.00 | 0.00 | 67 | 1010.1 |
| 20260502130709 | 51 | 229 | 23.0 | 27.0 | 0.00 | 0.00 | 0.00 | 67 | 1011.0 |
| 20260502122708 | 50 | 222 | 24.0 | 28.0 | 0.00 | 0.00 | 0.00 | 67 | 1011.2 |
| 20260502120708 | 51 | 226 | 25.0 | 28.0 | 0.00 | 0.00 | 0.00 | 66 | 1011.3 |
| 20260502114709 | 51 | 227 | 24.0 | 28.0 | 0.00 | 0.00 | 0.00 | 66 | 1011.5 |
| 20260502112708 | 50 | 228 | 25.0 | 28.0 | 0.00 | 0.00 | 0.00 | 67 | 1011.6 |
| 20260502110708 | 50 | 232 | 21.0 | 28.0 | 0.00 | 0.00 | 0.00 | 67 | 1011.9 |
| 20260502104708 | 50 | 230 | 21.0 | 24.0 | 0.00 | 0.00 | 0.00 | 67 | 1012.0 |
| 20260502102708 | 50 | 229 | 19.0 | 21.0 | 0.00 | 0.00 | 0.00 | 67 | 1012.1 |
| 20260502100708 | 49 | 232 | 24.0 | 28.0 | 0.00 | 0.00 | 0.00 | 69 | 1012.2 |
| 20260502090708 | 49 | 245 | 19.0 | 23.0 | 0.00 | 0.00 | 0.00 | 67 | 1012.3 |
| 20260502070707 | 47 | 254 | 18.0 | 21.0 | 0.00 | 0.00 | 0.00 | 73 | 1012.7 |
| 20260502064707 | 47 | 253 | 17.0 | 20.0 | 0.00 | 0.00 | 0.00 | 74 | 1012.9 |
| 20260502062707 | 47 | 250 | 21.0 | 25.0 | 0.00 | 0.00 | 0.00 | 75 | 1012.9 |
| 20260502060707 | 46 | 250 | 21.0 | 24.0 | 0.00 | 0.00 | 0.00 | 75 | 1012.9 |
| 20260502054707 | 46 | 250 | 21.0 | 23.0 | 0.00 | 0.00 | 0.00 | 76 | 1012.9 |
| 20260502052707 | 46 | 254 | 21.0 | 23.0 | 0.00 | 0.00 | 0.00 | 77 | 1012.9 |
| 20260502050707 | 46 | 254 | 19.0 | 22.0 | 0.00 | 0.00 | 0.00 | 78 | 1012.9 |
| 20260502044707 | 46 | 261 | 21.0 | 25.0 | 0.00 | 0.00 | 0.00 | 75 | 1012.9 |
| 20260502042707 | 46 | 261 | 21.0 | 25.0 | 0.00 | 0.00 | 0.00 | 75 | 1012.7 |
| 20260502040706 | 46 | 263 | 20.0 | 23.0 | 0.00 | 0.00 | 0.00 | 77 | 1012.8 |